Regional Weather Roundup
Issued by NWS Spokane, WA

Home | Current Version | Previous Version | Text Only | Print | Product List | Glossary On
Versions: 1 2 3 4 5 6 7 8 9 10 11 12 13 14 15 16 17 18 19 20 21 22 23 24 25 26 27 28 29 30 31 32 33 34 35 36 37 38 39 40 41 42 43 44 45 46 47 48 49 50
130
NZUS01 KOTX 201010
RWROTX

Eastern Washington/Northern Idaho Roundup
National Weather Service, Spokane WA
200 AM PST MON NOV 20 2017

Note: "fair" indicated few or no clouds below 12,000 feet with no
significant weather and/or obstructions to visibility.

...Northeast Washington and Northern Idaho Panhandle...

CITY           SKY/WX    TMP DP  RH WIND       PRES   REMARKS
Spokane Intl   FLURRIES  40  37  89 S14G28    29.68F
Spokane Downto LGT RAIN  42  37  82 S7        29.71F
Coeur d Alene  LGT RAIN  38  36  92 S9        29.73F
Deer Park      MIX PCPN  37  37 100 SE7       29.70F
Sandpoint      RAIN      34  34 100 SW7       29.73R WCI  28
Bonners Ferry  CLOUDY    36  32  87 W3        29.69R

...Southeast Washington and southern Idaho Panhandle...

CITY           SKY/WX    TMP DP  RH WIND       PRES   REMARKS
Walla Walla    CLOUDY    48  40  73 NE5       29.70F
Pullman/Moscow LGT RAIN  42  36  79 SE7       29.78R
Lewiston       LGT RAIN  46  37  71 NE8       29.76S
Lowell           N/A     35  34  96 N6        29.88F
Grangeville    CLOUDY    37  28  70 E9        29.76S

...Columbia Basin...

CITY           SKY/WX    TMP DP  RH WIND       PRES   REMARKS
Ephrata        CLOUDY    39  32  76 S5        29.64S
Moses Lake     CLOUDY    40  37  89 S10       29.64F
Pasco          CLOUDY    45  36  70 SE7       29.71F
Richland       CLOUDY    48  35  61 S5        29.70F
Hermiston      CLOUDY    42  34  73 NW3       29.71S
Pendleton      CLOUDY    58  29  33 S9        29.69F

...East Slopes Cascades...

CITY           SKY/WX    TMP DP  RH WIND       PRES   REMARKS
The Dalles     LGT RAIN  40  38  93 N5        29.74S FOG
Yakima         CLOUDY    40  36  86 CALM      29.67S
Ellensburg     LGT RAIN  34  32  92 NW5       29.64F FOG     WCI  30
Stampede Pass  FRZ RAIN  33  32  96 NE5       29.60S FOG     WCI  29
Wenatchee      MOCLDY    34  34 100 SW6       29.65S WCI  29
Omak           CLOUDY    39  33  79 CALM      29.65R
Sunnyside      PTSUNNY   42  39  88 E5        29.68S

...Southern British Columbia...

CITY           SKY/WX    TMP DP  RH WIND       PRES   REMARKS
Penticton      LGT RAIN  43  30  61 S22G30    29.62S
Cranbrook      CLOUDY    34  30  86 E9        29.57R WCI  26
Osoyoos          N/A     43  30  61 SE6         N/A
Creston          N/A     36  34  93 SW2         N/A

...Western Montana...

CITY           SKY/WX    TMP DP  RH WIND       PRES   REMARKS
Kalispell      CLOUDY    41  24  51 W6        29.65S
Libby            N/A     37  36  93 SE8       29.66R
Missoula       CLOUDY    34  25  69 CALM      29.76R

...Neighboring Cities...

CITY           SKY/WX    TMP DP  RH WIND       PRES   REMARKS
Seattle        CLOUDY    46  44  93 SE5       29.59F
Portland       RAIN      46  46 100 E12       29.69F FOG
Boise          CLOUDY    43  29  57 SE12      29.95F
Great Falls    CLOUDY    48   8  19 SW24G41   29.50F
Calgary        LGT SNOW  28  25  86 N21G29    29.42R WCI  15



USA.gov is the U.S. government's official web portal to all federal, state and local government web resources and services.